Change the Weather History Date:

Monday, March 4, 2013

  Actual Average Record
Temperature  
Mean Temperature 41 °F 45 °F  
Max Temperature 56 °F 56 °F 82 °F (1976)
Min Temperature 25 °F 34 °F 0 °F (1960)
Degree Days  
Heating Degree Days 24 20  
Month to date heating degree days 115 83  
Since 1 July heating degree days 3010 3281  
Cooling Degree Days 0 0  
Month to date cooling degree days 0 0  
Year to date cooling degree days 0 0  
Moisture  
Dew Point 25 °F    
Average Humidity 57    
Maximum Humidity 81    
Minimum Humidity 32    
Precipitation  
Precipitation T in 0.13 in 4.48 in (1964)
Month to date precipitation 0.10 0.54  
Year to date precipitation 7.79 8.11  
Snow  
Snow 0.00 in 0.00 in 0.50 in (1998)
Month to date snowfall 1.4 0.1  
Since 1 July snowfall 2.7 7.9  
Snow Depth 0.00 in    
Sea Level Pressure  
Sea Level Pressure 30.04 in    
Wind  
Wind Speed 6 mph (ESE)    
Max Wind Speed 13 mph    
Max Gust Speed 16 mph    
Visibility 10 miles    
Events      
T = Trace of Precipitation, MM = Missing Value Source: NWS Daily Summary

Daily Weather History Graph

Daily Weather History Graph

Search for Another Location

Airport or City:

Trip Planner

Search our weather history database for the weather conditions in past years. The results will help you decide how hot, cold, wet, or windy it might be!

Date:

Astronomy

Mar. 04, 2013 Rise Set
Actual Time 6:12 AM CST 5:43 PM CST
Civil Twilight 5:46 AM CST 6:09 PM CST
Nautical Twilight 5:16 AM CST 6:39 PM CST
Astronomical Twilight 4:46 AM CST 7:09 PM CST
Moon 12:15 AM CST (3/4) 10:30 AM CST (3/4)
Length of Visible Light 12h 22m
Length of Day
11h 30m
Waning Gibbous, 52% of the Moon is Illuminated
Mar 4
Waning Gibbous
Mar 4
Last Quarter
Mar 11
New
Mar 19
First Quarter
Mar 27
Full

Hourly Weather History & Observations

Time (CST) Temp. Windchill Dew Point Humidity Pressure Visibility Wind Dir Wind Speed Gust Speed Precip Events Conditions
12:53 AM 26.1 °F - 19.9 °F 78% 30.15 in 10.0 mi Calm Calm - N/A   Clear
1:53 AM 26.1 °F - 21.0 °F 81% 30.15 in 10.0 mi Calm Calm - N/A   Clear
2:53 AM 26.1 °F - 21.0 °F 81% 30.15 in 10.0 mi Calm Calm - N/A   Clear
3:53 AM 28.0 °F - 23.0 °F 81% 30.16 in 10.0 mi Calm Calm - N/A   Overcast
4:53 AM 28.0 °F - 23.0 °F 81% 30.17 in 10.0 mi Calm Calm - N/A   Overcast
5:53 AM 28.9 °F 23.9 °F 23.0 °F 78% 30.16 in 10.0 mi ENE 4.6 mph - N/A   Overcast
6:53 AM 30.9 °F 27.5 °F 23.0 °F 72% 30.16 in 10.0 mi ESE 3.5 mph - N/A   Mostly Cloudy
7:53 AM 34.0 °F 28.0 °F 21.9 °F 61% 30.15 in 10.0 mi ESE 6.9 mph - N/A   Mostly Cloudy
8:53 AM 37.0 °F 31.6 °F 23.0 °F 57% 30.15 in 10.0 mi ESE 6.9 mph - N/A   Mostly Cloudy
9:53 AM 41.0 °F 35.2 °F 21.9 °F 47% 30.13 in 10.0 mi SSE 9.2 mph - N/A   Scattered Clouds
10:53 AM 45.0 °F 40.6 °F 23.0 °F 42% 30.10 in 10.0 mi SE 8.1 mph - N/A   Mostly Cloudy
11:53 AM 46.0 °F 41.9 °F 23.0 °F 40% 30.07 in 10.0 mi ESE 8.1 mph - N/A   Overcast
12:53 PM 50.0 °F - 23.0 °F 35% 30.02 in 10.0 mi SSE 8.1 mph 16.1 mph N/A   Partly Cloudy
1:53 PM 53.1 °F - 24.1 °F 32% 29.98 in 10.0 mi ESE 11.5 mph - N/A   Clear
2:53 PM 55.0 °F - 26.1 °F 33% 29.95 in 10.0 mi ESE 12.7 mph - N/A   Clear
3:53 PM 54.0 °F - 27.0 °F 35% 29.91 in 10.0 mi ESE 11.5 mph - N/A   Clear
4:53 PM 54.0 °F - 26.1 °F 34% 29.91 in 10.0 mi ESE 6.9 mph - N/A   Clear
5:53 PM 50.0 °F - 30.0 °F 46% 29.92 in 10.0 mi East 3.5 mph - N/A   Overcast
6:53 PM 48.0 °F - 30.9 °F 52% 29.94 in 10.0 mi East 5.8 mph - N/A   Overcast
7:53 PM 48.9 °F - 30.0 °F 48% 29.94 in 10.0 mi East 5.8 mph - N/A   Overcast
8:53 PM 48.9 °F - 30.9 °F 50% 29.93 in 10.0 mi East 6.9 mph - N/A   Overcast
9:53 PM 50.0 °F - 30.9 °F 48% 29.92 in 10.0 mi ESE 6.9 mph - N/A   Overcast
10:53 PM 50.0 °F - 30.0 °F 46% 29.90 in 10.0 mi SE 8.1 mph - N/A   Overcast
11:53 PM 48.9 °F - 30.9 °F 50% 29.88 in 10.0 mi ESE 4.6 mph - 0.00 in   Overcast